Location: Bambrugge
(50.9212°N, 3.9299°E)
Time: 01:46:43
(UTC+00:00)

Helios 1A Rocket - Pass Details

Date: 23 May 2024
Orbit: 520 x 543 km, 98.3° (Epoch: 16 June)

Event Time Altitude Azimuth Distance (km) Brightness Sun altitude
Exits shadow 00:07:57 22° 126° (SE) 1,192 4.2 -18.2°
Maximum altitude 00:09:58 41° 68° (ENE) 786 3.8 -18.2°
Drops below altitude 10° 00:13:37 10° 358° (N) 1,794 6.7 -18.1°
Sets 00:15:48 0° 351° (N) 2,685 7.7 -18.0°
